2023-001A (55009 NORAD) Tracking and Keplerian Element Data

This shows tracking and keplerian element data for the satellite.

Feedback or suggestion? Click here.




ElementValue
Catalog55009
Name2023-001A
Epoch Orbit169
Epoch Day13.79045978
Epoch Year2023
RAAN75.7239
Inclination97.501
Eccentricity0.0010046
Argument of Perigee191.0037
Mean Anonmoly169.0975
Mean Motion15.11813195
Decay Rate7.854E-05
L11 55009U 23001A 23013.79045978 .00007854 00000+0 46291-3 0 9991
L22 55009 97.5010 75.7239 0010046 191.0037 169.0975 15.11813195 1696



Live tracking and technical data element details for 2023-001A (NORAD 55009). 2023-001A can be tracked NOW for your location showing map with azimuth and elevation plus other details from your city location.







IsCatalogInMostPopularTable: catalog: 55009, numindb: 4
Update: records affected: 1



GetName: 55009 2023-001A

Hit Count: updated at: Tue, 07 Feb 2023 15:11:30 GMT